Hourly Weather Durres

Today, 13 July, Monday

Time Temperature Precipitation Wind Pressure Humidity
00:00 +23°C° 0 mm 5 mps 760 mmHg 77%
01:00 +23°C° 0 mm 5 mps 760 mmHg 77%
02:00 +22°C° 0 mm 6 mps 760 mmHg 77%
03:00 +22°C° 0 mm 6 mps 759 mmHg 76%
04:00 +22°C° 0 mm 7 mps 759 mmHg 76%
05:00 +23°C° 0 mm 7 mps 759 mmHg 68%
06:00 +26°C° 0 mm 7 mps 759 mmHg 60%
07:00 +27°C° 0 mm 7 mps 760 mmHg 53%
08:00 +29°C° 0 mm 7 mps 760 mmHg 49%
09:00 +31°C° 0 mm 8 mps 759 mmHg 44%
10:00 +33°C° 0 mm 8 mps 759 mmHg 40%
11:00 +34°C° 0 mm 8 mps 759 mmHg 37%
12:00 +34°C° 0 mm 9 mps 759 mmHg 35%
13:00 +35°C° 0 mm 9 mps 759 mmHg 32%
14:00 +35°C° 0 mm 9 mps 758 mmHg 32%
15:00 +35°C° 0 mm 9 mps 758 mmHg 31%
16:00 +36°C° 0 mm 10 mps 757 mmHg 31%
17:00 +33°C° 0 mm 10 mps 757 mmHg 36%
18:00 +31°C° 0 mm 10 mps 758 mmHg 40%
19:00 +28°C° 0 mm 10 mps 758 mmHg 45%
20:00 +27°C° 0 mm 9 mps 758 mmHg 48%
21:00 +24°C° 0 mm 8 mps 758 mmHg 50%
22:00 +22°C° 0 mm 7 mps 758 mmHg 53%
23:00 +22°C° 0 mm 7 mps 758 mmHg 52%

Tomorrow, 14 July, Tuesday

Time Temperature Precipitation Wind Pressure Humidity
00:00 +21°C° 0 mm 7 mps 758 mmHg 51%
01:00 +20°C° 0 mm 6 mps 758 mmHg 50%
02:00 +20°C° 0 mm 6 mps 758 mmHg 49%
03:00 +20°C° 0 mm 6 mps 758 mmHg 49%
04:00 +19°C° 0 mm 6 mps 758 mmHg 48%
05:00 +21°C° 0 mm 6 mps 758 mmHg 45%
06:00 +23°C° 0 mm 5 mps 758 mmHg 41%
07:00 +25°C° 0 mm 5 mps 758 mmHg 38%
08:00 +27°C° 0 mm 4 mps 758 mmHg 36%
09:00 +28°C° 0 mm 4 mps 758 mmHg 35%
10:00 +30°C° 0 mm 3 mps 758 mmHg 33%
11:00 +30°C° 0 mm 4 mps 758 mmHg 33%
12:00 +32°C° 0 mm 4 mps 758 mmHg 34%
13:00 +33°C° 0 mm 4 mps 758 mmHg 34%
14:00 +33°C° 0 mm 5 mps 757 mmHg 35%
15:00 +32°C° 0 mm 6 mps 757 mmHg 36%
16:00 +32°C° 0 mm 6 mps 757 mmHg 37%
17:00 +29°C° 0 mm 6 mps 757 mmHg 44%
18:00 +27°C° 0 mm 5 mps 757 mmHg 50%
19:00 +25°C° 0 mm 5 mps 758 mmHg 57%
20:00 +23°C° 0 mm 4 mps 758 mmHg 61%
21:00 +22°C° 0 mm 3 mps 758 mmHg 66%
22:00 +21°C° 0 mm 2 mps 758 mmHg 70%
23:00 +21°C° 0 mm 2 mps 759 mmHg 70%

Day after tomorrow, 15 July, Wednesday

Time Temperature Precipitation Wind Pressure Humidity
00:00 +22°C° 0 mm 1 mps 759 mmHg 69%
01:00 +22°C° 0 mm 1 mps 759 mmHg 69%
02:00 +21°C° 0 mm 1 mps 759 mmHg 70%
03:00 +21°C° 0 mm 1 mps 759 mmHg 71%
04:00 +20°C° 0 mm 2 mps 759 mmHg 72%
05:00 +23°C° 0 mm 2 mps 759 mmHg 65%
06:00 +25°C° 0 mm 1 mps 759 mmHg 58%
07:00 +27°C° 0 mm 1 mps 759 mmHg 51%
08:00 +29°C° 0 mm 1 mps 759 mmHg 43%
09:00 +30°C° 0 mm 1 mps 759 mmHg 36%
10:00 +32°C° 0 mm 1 mps 759 mmHg 28%
11:00 +34°C° 0 mm 2 mps 759 mmHg 27%
12:00 +34°C° 0 mm 3 mps 759 mmHg 25%
13:00 +34°C° 0 mm 3 mps 759 mmHg 23%
14:00 +34°C° 0 mm 3 mps 759 mmHg 24%
15:00 +34°C° 0 mm 2 mps 759 mmHg 25%
16:00 +32°C° 0 mm 2 mps 759 mmHg 27%
17:00 +30°C° 0 mm 2 mps 759 mmHg 32%
18:00 +28°C° 0 mm 1 mps 759 mmHg 38%
19:00 +26°C° 0 mm 1 mps 759 mmHg 44%
20:00 +25°C° 0 mm 1 mps 759 mmHg 47%
21:00 +24°C° 0 mm 2 mps 759 mmHg 49%
22:00 +23°C° 0 mm 2 mps 759 mmHg 52%
23:00 +23°C° 0 mm 2 mps 759 mmHg 52%

16 July, Thursday

Time Temperature Precipitation Wind Pressure Humidity
00:00 +23°C° 0 mm 2 mps 759 mmHg 53%
01:00 +21°C° 0 mm 2 mps 759 mmHg 53%
02:00 +21°C° 0.1 mm 3 mps 759 mmHg 53%
03:00 +21°C° 0.1 mm 3 mps 758 mmHg 53%
04:00 +21°C° 0.1 mm 3 mps 758 mmHg 53%
05:00 +24°C° 0.1 mm 3 mps 758 mmHg 48%
06:00 +26°C° 0.1 mm 3 mps 758 mmHg 42%
07:00 +28°C° 0.1 mm 2 mps 758 mmHg 37%
08:00 +30°C° 0 mm 2 mps 758 mmHg 34%
09:00 +32°C° 0 mm 2 mps 758 mmHg 32%
10:00 +34°C° 0 mm 2 mps 758 mmHg 29%
11:00 +35°C° 0 mm 3 mps 758 mmHg 30%
12:00 +35°C° 0 mm 3 mps 757 mmHg 32%
13:00 +35°C° 0 mm 4 mps 757 mmHg 33%
14:00 +34°C° 0 mm 3 mps 757 mmHg 35%
15:00 +34°C° 0 mm 2 mps 756 mmHg 37%
16:00 +32°C° 0 mm 2 mps 756 mmHg 38%
17:00 +31°C° 0 mm 1 mps 756 mmHg 44%
18:00 +29°C° 0 mm 1 mps 756 mmHg 50%
19:00 +27°C° 0 mm 1 mps 756 mmHg 56%
20:00 +26°C° 0 mm 1 mps 756 mmHg 60%
21:00 +25°C° 0 mm 1 mps 756 mmHg 64%
22:00 +24°C° 0 mm 1 mps 756 mmHg 68%
23:00 +24°C° 0 mm 1 mps 756 mmHg 68%

17 July, Friday

Time Temperature Precipitation Wind Pressure Humidity
00:00 +23°C° 0 mm 1 mps 756 mmHg 68%
01:00 +23°C° 0 mm 2 mps 755 mmHg 68%
02:00 +23°C° 0 mm 2 mps 755 mmHg 65%
03:00 +24°C° 0 mm 2 mps 755 mmHg 63%
04:00 +24°C° 0 mm 2 mps 755 mmHg 61%
05:00 +26°C° 0 mm 2 mps 755 mmHg 55%
06:00 +27°C° 0 mm 2 mps 755 mmHg 49%
07:00 +29°C° 0 mm 2 mps 755 mmHg 43%
08:00 +30°C° 0 mm 2 mps 755 mmHg 41%
09:00 +31°C° 0 mm 2 mps 755 mmHg 38%
10:00 +34°C° 0 mm 2 mps 755 mmHg 35%
11:00 +34°C° 0 mm 3 mps 754 mmHg 34%
12:00 +35°C° 0 mm 3 mps 754 mmHg 33%
13:00 +35°C° 0 mm 4 mps 754 mmHg 32%
14:00 +35°C° 0 mm 5 mps 754 mmHg 33%
15:00 +34°C° 0 mm 5 mps 754 mmHg 35%
16:00 +34°C° 0 mm 6 mps 754 mmHg 37%
17:00 +32°C° 0 mm 6 mps 754 mmHg 43%
18:00 +30°C° 0 mm 5 mps 754 mmHg 49%
19:00 +28°C° 0 mm 4 mps 754 mmHg 55%
20:00 +26°C° 0 mm 5 mps 755 mmHg 62%
21:00 +25°C° 0 mm 5 mps 755 mmHg 69%
22:00 +23°C° 0 mm 6 mps 755 mmHg 76%
23:00 +22°C° 0 mm 5 mps 755 mmHg 76%

18 July, Saturday

Time Temperature Precipitation Wind Pressure Humidity
00:00 +22°C° 0 mm 5 mps 755 mmHg 76%
01:00 +22°C° 0 mm 5 mps 755 mmHg 76%
02:00 +22°C° 0.1 mm 5 mps 755 mmHg 77%
03:00 +21°C° 0.1 mm 5 mps 755 mmHg 78%
04:00 +21°C° 0.1 mm 4 mps 755 mmHg 78%
05:00 +22°C° 0.1 mm 5 mps 755 mmHg 72%
06:00 +25°C° 0.1 mm 5 mps 755 mmHg 65%
07:00 +26°C° 0.1 mm 5 mps 755 mmHg 59%
08:00 +28°C° 0 mm 5 mps 755 mmHg 53%
09:00 +30°C° 0 mm 6 mps 755 mmHg 47%
10:00 +33°C° 0 mm 6 mps 755 mmHg 40%
11:00 +33°C° 0 mm 7 mps 755 mmHg 38%
12:00 +34°C° 0 mm 7 mps 755 mmHg 36%
13:00 +35°C° 0 mm 8 mps 755 mmHg 34%
14:00 +34°C° 0 mm 8 mps 754 mmHg 37%
15:00 +33°C° 0 mm 9 mps 754 mmHg 40%
16:00 +32°C° 0 mm 9 mps 754 mmHg 43%
17:00 +29°C° 0.1 mm 9 mps 755 mmHg 52%
18:00 +27°C° 0.1 mm 8 mps 755 mmHg 61%
19:00 +24°C° 0.1 mm 8 mps 755 mmHg 70%
20:00 +23°C° 0 mm 7 mps 756 mmHg 72%
21:00 +23°C° 0 mm 6 mps 756 mmHg 75%
22:00 +22°C° 0 mm 5 mps 756 mmHg 77%
23:00 +22°C° 0 mm 5 mps 756 mmHg 77%
Show more